Location: Voyageurs National Park
(48.5020°N, 92.9292°W)
Time: 02:03:57
(UTC-05:00)

ATLAS CENTAUR R/B - Pass Details

Date: 19 January 2018
Orbit: 467 x 686 km, 64.7° (Epoch: 17 May)

Event Time Altitude Azimuth Distance (km) Brightness Sun altitude
Exits shadow 06:18:56 29° 296° (WNW) 1,043 2.2 -15.6°
Maximum altitude 06:20:43 49° 237° (WSW) 734 1.6 -15.3°
Drops below altitude 10° 06:24:54 10° 162° (SSE) 1,930 4.5 -14.7°
Sets 06:27:17 0° 157° (SSE) 2,868 5.5 -14.3°
